Location: Mountain Grove
(34.0887°N, 86.6172°W)
Time: 00:29:27
(UTC+00:00)

CZ-4B R/B - Pass Details

Date: 14 July 2020
Orbit: 390 x 465 km, 97.6° (Epoch: 12 August)

Event Time Altitude Azimuth Distance (km) Brightness Sun altitude
Rises 09:52:01 0° 157° (SSE) 2,471 5.0 -10.4°
Reaches altitude 10° 09:54:05 10° 152° (SSE) 1,607 4.1 -10.0°
Maximum altitude 09:57:27 52° 76° (ENE) 586 2.4 -9.5°
Drops below altitude 10° 10:00:51 10° 359° (N) 1,624 4.7 -8.9°
Sets 10:02:56 0° 354° (N) 2,502 5.6 -8.5°
